Weather in Gorki

Belarus     54°16′59″N   30°59′42″E
temp.,
°C
wind,
m/s
gust,
m/s
humid.,
%
clouds,
%
prec.,
mm/h
press.,
hPa
HPBL,
m
14 may, fri
fri1400:00+8ese5119089 0.0 1011274
03:00+9se61391100 0.4 1011457
06:00+10se61291100 0.4 1010437
09:00+10se71494100 0.7 1010578
12:00+12ese6118751 0.6 1010434
15:00+18se696520 0.9 10081444
18:00+18se46766 1.3 1007919
21:00+14se2288100 3.6 100611
15 may, sat
sat1500:00+13se1188100 0.1 100612
03:00+11sse22924 0.1 100513
06:00+10s369731 0.9 1006142
09:00+15s468531 1.1 1006526
12:00+17ssw567129 1.4 10061108
15:00+18ssw456863 2.8 10061292
18:00+16ssw578218 2.7 1006733
21:00+13ssw5119396 6.2 1007348
16 may, sun
sun1600:00+12ssw51196100 1.6 1008352
03:00+12ssw4998100 2.5 1008272
06:00+11ssw489995 0.3 1010288
09:00+14sw4692100 0.9 1011448
12:00+17sw447499 0.1 10111008
15:00+18ssw457040 0.5 10121056
18:00+17ssw357699 0.1 1011309
21:00+13sse33883 0.1 101229
17 may, mon
mon1700:00+11se349365 0.0 101260
03:00+11ese3592100 0.0 101268
06:00+11ese3693100 0.0 1011111
09:00+16ese5880100 0.0 1010356
12:00+19e3572100 0.0 1008537
15:00+19e5982100 3.6 1004645
18:00+18ssw71188100 4.8 1002757
21:00+12nw379786 7.1 1005225
18 may, tue
tue1800:00+11sw369835 0.0 1007158
03:00+12wsw379898 0.0 1008264
06:00+10w3797100 0.0 1009210
09:00+13wnw3578100 0.0 1010447
12:00+16wnw2365100 0.0 1011824
15:00+19wnw125928 0.0 10101383
18:00+19sw226317 0.1 10091138
21:00+14sse11802 0.6 101011